Weather History for Cecil Field, FL

Change the Weather History Date:

Wednesday, April 24, 2013

  Actual Average (KJAX) Record (KJAX)
Temperature  
Mean Temperature 65 °F 69 °F  
Max Temperature 84 °F 81 °F 93 °F (1958)
Min Temperature 46 °F 56 °F 39 °F (1986)
Degree Days  
Heating Degree Days 0 1  
Month to date heating degree days 50  
Since 1 July heating degree days 1339  
Cooling Degree Days 0 5  
Month to date cooling degree days 82  
Year to date cooling degree days 165  
Growing Degree Days 15 (Base 50)    
Moisture  
Dew Point 53 °F    
Average Humidity 85    
Maximum Humidity 100    
Minimum Humidity 39    
Precipitation  
Precipitation 0.00 in 0.07 in 1.04 in (1933)
Month to date precipitation 2.22  
Year to date precipitation 12.66  
Snow  
Snow 0.00 in 0.00 in 0.00 in (2002)
Month to date snowfall 0.0  
Since 1 July snowfall T  
Snow Depth -    
Sea Level Pressure  
Sea Level Pressure 30.14 in    
Wind  
Wind Speed 1 mph (SE)    
Max Wind Speed 10 mph    
Max Gust Speed -    
Visibility 9 miles    
Events      
T = Trace of Precipitation, MM = Missing Value Source: NWS Daily Summary

Daily Weather History Graph

Daily Weather History Graph

Search for Another Location

Airport:

Trip Planner

Search our weather history database for the weather conditions in past years. The results will help you decide how hot, cold, wet, or windy it might be!

Date:

Astronomy

Apr. 24, 2013 Rise Set
Actual Time 6:50 AM EDT 8:00 PM EDT
Civil Twilight 6:25 AM EDT 8:25 PM EDT
Nautical Twilight 5:55 AM EDT 8:55 PM EDT
Astronomical Twilight 5:25 AM EDT 9:26 PM EDT
Moon 7:04 PM EDT (4/24) 5:48 AM EDT (4/24)
Length of Visible Light 14h 00m
Length of Day
13h 10m
Waxing Gibbous, 98% of the Moon is Illuminated
Apr 24
Waxing Gibbous
Apr 25
Full
May 2
Last Quarter
May 9
New
May 18
First Quarter

Hourly Weather History & Observations

Time (EDT) Temp. Heat Index Dew Point Humidity Pressure Visibility Wind Dir Wind Speed Gust Speed Precip Events Conditions
12:15 AM 50.0 °F - 50.0 °F 100% 30.16 in 8.0 mi Calm Calm - N/A   Clear
12:35 AM 50.0 °F - 50.0 °F 100% 30.17 in 9.0 mi Calm Calm - N/A   Clear
12:55 AM 50.0 °F - 50.0 °F 100% 30.17 in 4.0 mi Calm Calm - N/A   Clear
1:15 AM 48.2 °F - 48.2 °F 100% 30.17 in 8.0 mi Calm Calm - N/A   Clear
1:35 AM 48.2 °F - 48.2 °F 100% 30.16 in 7.0 mi Calm Calm - N/A   Clear
1:55 AM 48.2 °F - 48.2 °F 100% 30.15 in 7.0 mi Calm Calm - N/A   Clear
2:15 AM 48.2 °F - 48.2 °F 100% 30.14 in 8.0 mi Calm Calm - N/A   Clear
2:35 AM 48.2 °F - 48.2 °F 100% 30.13 in 8.0 mi Calm Calm - N/A   Clear
2:55 AM 48.2 °F - 48.2 °F 100% 30.13 in 8.0 mi Calm Calm - N/A   Clear
3:15 AM 48.2 °F - 48.2 °F 100% 30.12 in 9.0 mi Calm Calm - N/A   Clear
3:35 AM 48.2 °F - 48.2 °F 100% 30.12 in 9.0 mi Calm Calm - N/A   Clear
3:55 AM 46.4 °F - 46.4 °F 100% 30.12 in 8.0 mi Calm Calm - N/A   Clear
4:15 AM 46.4 °F - 46.4 °F 100% 30.12 in 7.0 mi Calm Calm - N/A   Clear
4:35 AM 46.4 °F - 46.4 °F 100% 30.13 in 10.0 mi Calm Calm - N/A   Clear
4:55 AM 46.4 °F - 46.4 °F 100% 30.13 in 8.0 mi Calm Calm - N/A   Clear
5:15 AM 46.4 °F - 46.4 °F 100% 30.13 in 7.0 mi Calm Calm - N/A   Clear
5:35 AM 46.4 °F - 46.4 °F 100% 30.13 in 7.0 mi Calm Calm - N/A   Clear
5:55 AM 46.4 °F - 46.4 °F 100% 30.13 in 8.0 mi Calm Calm - N/A   Clear
6:15 AM 46.4 °F - 46.4 °F 100% 30.13 in 9.0 mi Calm Calm - N/A   Scattered Clouds
6:35 AM 46.4 °F - 46.4 °F 100% 30.14 in 7.0 mi Calm Calm - N/A   Mostly Cloudy
6:50 AM 46.4 °F - 46.4 °F 100% 30.14 in 2.0 mi Calm Calm - N/A   Overcast
7:50 AM 48.2 °F - 48.2 °F 100% 30.16 in 2.5 mi Calm Calm - N/A   Overcast
8:30 AM 55.4 °F - 55.4 °F 100% 30.17 in 10.0 mi Calm Calm - N/A   Clear
9:50 AM 68.0 °F - 62.6 °F 83% 30.17 in 10.0 mi SSE 9.2 mph - N/A   Clear
10:50 AM 73.4 °F - 60.8 °F 65% 30.17 in 10.0 mi South 8.1 mph - N/A   Clear
11:50 AM 75.2 °F - 57.2 °F 53% 30.17 in 10.0 mi ESE 6.9 mph - N/A   Clear
12:50 PM 77.0 °F - 57.2 °F 50% 30.16 in 10.0 mi ESE 4.6 mph - N/A   Clear
1:50 PM 80.6 °F 80.8 °F 57.2 °F 45% 30.15 in 10.0 mi Variable 6.9 mph - N/A   Partly Cloudy
2:50 PM 82.4 °F 82.0 °F 57.2 °F 42% 30.13 in 10.0 mi Variable 6.9 mph - N/A   Partly Cloudy
4:50 PM 84.2 °F 83.5 °F 57.2 °F 40% 30.10 in 10.0 mi Variable 4.6 mph - N/A   Scattered Clouds
5:50 PM 82.4 °F 81.7 °F 55.4 °F 39% 30.10 in 10.0 mi North 5.8 mph - N/A   Partly Cloudy
6:50 PM 77.0 °F - 62.6 °F 61% 30.10 in 10.0 mi SE 10.4 mph - N/A   Clear
7:50 PM 73.4 °F - 60.8 °F 65% 30.11 in 10.0 mi SE 8.1 mph - N/A   Clear
8:15 PM 73.4 °F - 59.0 °F 61% 30.12 in 10.0 mi SE 5.8 mph - N/A   Clear
8:35 PM 71.6 °F - 60.8 °F 69% 30.13 in 10.0 mi Calm Calm - N/A   Clear
8:55 PM 71.6 °F - 60.8 °F 69% 30.13 in 10.0 mi Calm Calm - N/A   Clear
9:15 PM 69.8 °F - 60.8 °F 73% 30.13 in 10.0 mi Calm Calm - N/A   Clear
9:35 PM 69.8 °F - 62.6 °F 78% 30.15 in 10.0 mi Calm Calm - N/A   Clear
9:55 PM 68.0 °F - 62.6 °F 83% 30.16 in 10.0 mi Calm Calm - N/A   Clear
11:15 PM 62.6 °F - 60.8 °F 94% 30.16 in 10.0 mi Calm Calm - N/A   Clear
11:35 PM 62.6 °F - 60.8 °F 94% 30.15 in 10.0 mi Calm Calm - N/A   Clear
11:55 PM 62.6 °F - 60.8 °F 94% 30.15 in 10.0 mi Calm Calm - N/A   Clear